| time (UTC) | temp F | wind direction | speed MPH | gust MPH | rain 1hr in | rain 24hr in | rain mn in | humidity % | barometer mb |
| 20260831050516 | 61 | 270 | 8.0 | 18.0 | 0.00 | 0.79 | 0.74 | 87 | 1007.5 |
| 20260831045516 | 61 | 270 | 7.0 | 15.0 | 0.00 | 0.79 | 0.74 | 88 | 1007.4 |
| 20260831044536 | 60 | 270 | 6.0 | 15.0 | 0.00 | 0.79 | 0.74 | 88 | 1007.2 |
| 20260831043537 | 60 | 315 | 6.0 | 13.0 | 0.00 | 0.79 | 0.74 | 88 | 1007.2 |
| 20260831042516 | 60 | 315 | 7.0 | 14.0 | 0.00 | 0.79 | 0.74 | 88 | 1007.1 |
| 20260831041536 | 60 | 293 | 5.0 | 17.0 | 0.00 | 0.79 | 0.74 | 89 | 1007.0 |
| 20260831040519 | 60 | 293 | 5.0 | 11.0 | 0.00 | 0.79 | 0.74 | 90 | 1007.1 |
| 20260831035516 | 60 | 293 | 5.0 | 15.0 | 0.00 | 0.79 | 0.74 | 90 | 1007.1 |
| 20260831034537 | 60 | 293 | 5.0 | 13.0 | 0.00 | 0.79 | 0.74 | 90 | 1007.1 |
| 20260831033516 | 60 | 315 | 6.0 | 13.0 | 0.00 | 0.79 | 0.74 | 90 | 1007.0 |
| 20260831032517 | 60 | 248 | 7.0 | 16.0 | 0.00 | 0.79 | 0.74 | 91 | 1006.8 |
| 20260831031517 | 60 | 270 | 6.0 | 13.0 | 0.00 | 0.79 | 0.74 | 91 | 1006.8 |
| 20260831030517 | 60 | 270 | 4.0 | 12.0 | 0.01 | 0.79 | 0.74 | 91 | 1006.7 |
| 20260831025515 | 60 | 315 | 5.0 | 11.0 | 0.02 | 0.79 | 0.74 | 91 | 1006.7 |
| 20260831024515 | 60 | 293 | 5.0 | 14.0 | 0.02 | 0.79 | 0.74 | 91 | 1006.5 |
| 20260831023516 | 61 | 270 | 5.0 | 14.0 | 0.02 | 0.79 | 0.74 | 91 | 1006.5 |
| 20260831022516 | 61 | 315 | 5.0 | 12.0 | 0.16 | 0.79 | 0.74 | 91 | 1006.5 |
| 20260831021515 | 61 | 293 | 3.0 | 9.0 | 0.17 | 0.79 | 0.74 | 91 | 1006.4 |
| 20260831020516 | 61 | 270 | 5.0 | 19.0 | 0.17 | 0.78 | 0.73 | 91 | 1006.4 |
| 20260831015557 | 61 | 293 | 3.0 | 8.0 | 0.15 | 0.76 | 0.72 | 91 | 1006.2 |
| 20260831014517 | 60 | 293 | 3.0 | 10.0 | 0.15 | 0.76 | 0.72 | 90 | 1006.2 |
| 20260831013517 | 61 | 248 | 5.0 | 12.0 | 0.15 | 0.76 | 0.72 | 88 | 1006.3 |
| 20260831012515 | 62 | 315 | 9.0 | 18.0 | 0.02 | 0.63 | 0.58 | 86 | 1006.6 |
| 20260831011516 | 63 | 248 | 9.0 | 17.0 | 0.00 | 0.61 | 0.57 | 88 | 1005.9 |
| 20260831010515 | 63 | 225 | 10.0 | 19.0 | 0.00 | 0.61 | 0.57 | 88 | 1005.9 |
| 20260831005535 | 63 | 248 | 10.0 | 23.0 | 0.00 | 0.61 | 0.57 | 89 | 1006.2 |
| 20260831004517 | 63 | 225 | 8.0 | 18.0 | 0.00 | 0.61 | 0.57 | 89 | 1006.0 |
| 20260831003515 | 63 | 225 | 9.0 | 17.0 | 0.06 | 0.61 | 0.57 | 89 | 1006.0 |
| 20260831002515 | 63 | 225 | 13.0 | 25.0 | 0.29 | 0.61 | 0.57 | 90 | 1005.9 |
| 20260831001515 | 63 | 225 | 12.0 | 24.0 | 0.40 | 0.61 | 0.57 | 90 | 1005.9 |
| 20260831000517 | 63 | 270 | 11.0 | 25.0 | 0.55 | 0.61 | 0.57 | 91 | 1005.9 |
| 20260830235517 | 63 | 248 | 12.0 | 23.0 | 0.57 | 0.61 | 0.57 | 91 | 1006.0 |
| 20260830234517 | 63 | 225 | 12.0 | 20.0 | 0.57 | 0.61 | 0.57 | 91 | 1005.9 |
| 20260830233515 | 62 | 248 | 7.0 | 17.0 | 0.52 | 0.56 | 0.51 | 91 | 1005.9 |
| 20260830232515 | 63 | 225 | 10.0 | 21.0 | 0.28 | 0.32 | 0.28 | 88 | 1006.1 |
| 20260830231517 | 64 | 248 | 10.0 | 20.0 | 0.17 | 0.21 | 0.17 | 87 | 1006.6 |
| 20260830230515 | 66 | 225 | 12.0 | 22.0 | 0.02 | 0.06 | 0.02 | 84 | 1006.6 |
| 20260830225515 | 66 | 225 | 12.0 | 21.0 | 0.00 | 0.04 | 0.04 | 81 | 1006.4 |
| 20260830224517 | 66 | 225 | 11.0 | 19.0 | 0.00 | 0.04 | 0.04 | 81 | 1006.6 |
| 20260830223518 | 65 | 225 | 9.0 | 20.0 | 0.00 | 0.04 | 0.04 | 81 | 1006.7 |
| 20260830222517 | 65 | 225 | 11.0 | 24.0 | 0.00 | 0.04 | 0.04 | 80 | 1007.1 |
| 20260830221537 | 65 | 248 | 13.0 | 21.0 | 0.00 | 0.04 | 0.04 | 80 | 1007.1 |
| 20260830220517 | 65 | 225 | 7.0 | 14.0 | 0.00 | 0.04 | 0.04 | 81 | 1007.1 |
| 20260830215517 | 65 | 248 | 10.0 | 19.0 | 0.00 | 0.04 | 0.04 | 80 | 1007.2 |
| 20260830214517 | 65 | 225 | 11.0 | 25.0 | 0.00 | 0.04 | 0.04 | 81 | 1007.3 |
| 20260830213517 | 65 | 248 | 9.0 | 17.0 | 0.00 | 0.04 | 0.04 | 82 | 1007.3 |
| 20260830212518 | 65 | 248 | 7.0 | 14.0 | 0.00 | 0.04 | 0.04 | 83 | 1007.2 |
| 20260830211517 | 65 | 225 | 7.0 | 13.0 | 0.00 | 0.04 | 0.04 | 83 | 1007.4 |
| 20260830210518 | 65 | 225 | 8.0 | 22.0 | 0.00 | 0.04 | 0.04 | 83 | 1007.5 |
| 20260830205519 | 65 | 225 | 8.0 | 13.0 | 0.00 | 0.04 | 0.04 | 83 | 1007.4 |
| 20260830204517 | 64 | 248 | 6.0 | 13.0 | 0.00 | 0.04 | 0.04 | 82 | 1007.5 |
| 20260830203517 | 64 | 225 | 8.0 | 21.0 | 0.01 | 0.04 | 0.04 | 82 | 1007.5 |
| 20260830202519 | 65 | 225 | 9.0 | 18.0 | 0.04 | 0.04 | 0.04 | 83 | 1007.5 |
| 20260830201518 | 65 | 225 | 8.0 | 19.0 | 0.04 | 0.04 | 0.04 | 83 | 1007.4 |
| 20260830200517 | 65 | 225 | 11.0 | 26.0 | 0.04 | 0.05 | 0.04 | 83 | 1007.3 |
| 20260830195518 | 66 | 225 | 12.0 | 22.0 | 0.04 | 0.05 | 0.04 | 84 | 1007.2 |
| 20260830194517 | 66 | 225 | 10.0 | 21.0 | 0.04 | 0.05 | 0.04 | 85 | 1007.1 |
| 20260830193517 | 68 | 225 | 15.0 | 24.0 | 0.03 | 0.04 | 0.03 | 78 | 1007.3 |
| 20260830192517 | 68 | 203 | 12.0 | 25.0 | 0.00 | 0.01 | 0.00 | 76 | 1007.3 |
| 20260830191517 | 68 | 203 | 9.0 | 16.0 | 0.00 | 0.01 | 0.00 | 78 | 1007.1 |
| 20260830190517 | 68 | 203 | 8.0 | 14.0 | 0.00 | 0.01 | 0.00 | 77 | 1007.2 |
| 20260830185517 | 68 | 248 | 7.0 | 15.0 | 0.00 | 0.01 | 0.00 | 77 | 1007.2 |
| 20260830184517 | 68 | 225 | 5.0 | 11.0 | 0.00 | 0.01 | 0.00 | 77 | 1007.3 |
| 20260830183517 | 68 | 225 | 4.0 | 10.0 | 0.00 | 0.01 | 0.00 | 77 | 1007.4 |
| 20260830182517 | 68 | 203 | 5.0 | 12.0 | 0.00 | 0.01 | 0.00 | 76 | 1007.5 |
| 20260830181517 | 68 | 225 | 4.0 | 13.0 | 0.00 | 0.01 | 0.00 | 76 | 1007.6 |
| 20260830180517 | 68 | 225 | 4.0 | 7.0 | 0.00 | 0.01 | 0.00 | 75 | 1007.7 |
| 20260830175538 | 68 | 203 | 5.0 | 10.0 | 0.00 | 0.01 | 0.00 | 75 | 1007.7 |
| 20260830174518 | 68 | 203 | 6.0 | 13.0 | 0.00 | 0.01 | 0.00 | 76 | 1007.8 |
| 20260830173518 | 68 | 248 | 7.0 | 15.0 | 0.00 | 0.01 | 0.00 | 78 | 1008.1 |
| 20260830172517 | 69 | 225 | 8.0 | 15.0 | 0.00 | 0.01 | 0.00 | 78 | 1008.2 |
| 20260830171519 | 69 | 225 | 6.0 | 10.0 | 0.00 | 0.01 | 0.00 | 77 | 1008.1 |
| 20260830170517 | 69 | 248 | 8.0 | 18.0 | 0.00 | 0.01 | 0.00 | 76 | 1008.2 |
| 20260830165517 | 69 | 225 | 10.0 | 15.0 | 0.00 | 0.01 | 0.00 | 75 | 1008.3 |
| 20260830164516 | 69 | 225 | 7.0 | 16.0 | 0.00 | 0.01 | 0.00 | 75 | 1008.2 |
| 20260830163517 | 69 | 225 | 8.0 | 16.0 | 0.00 | 0.01 | 0.00 | 75 | 1008.3 |
| 20260830162516 | 70 | 225 | 9.0 | 19.0 | 0.00 | 0.01 | 0.00 | 73 | 1008.5 |
| 20260830161517 | 71 | 225 | 10.0 | 18.0 | 0.00 | 0.01 | 0.00 | 72 | 1008.6 |
| 20260830160518 | 71 | 225 | 9.0 | 22.0 | 0.00 | 0.01 | 0.00 | 72 | 1008.6 |
| 20260830155518 | 71 | 225 | 9.0 | 17.0 | 0.00 | 0.01 | 0.00 | 74 | 1008.7 |
| 20260830154517 | 70 | 225 | 9.0 | 16.0 | 0.00 | 0.01 | 0.00 | 75 | 1008.8 |
| 20260830153518 | 71 | 225 | 10.0 | 19.0 | 0.00 | 0.01 | 0.00 | 72 | 1008.9 |
| 20260830152516 | 71 | 225 | 10.0 | 21.0 | 0.00 | 0.01 | 0.00 | 72 | 1008.9 |
| 20260830151518 | 71 | 248 | 11.0 | 19.0 | 0.00 | 0.01 | 0.00 | 74 | 1008.9 |
| 20260830150516 | 72 | 248 | 10.0 | 21.0 | 0.00 | 0.01 | 0.00 | 73 | 1009.1 |
| 20260830145518 | 72 | 225 | 10.0 | 18.0 | 0.00 | 0.01 | 0.00 | 74 | 1009.2 |
| 20260830144516 | 72 | 225 | 9.0 | 18.0 | 0.00 | 0.01 | 0.00 | 73 | 1009.2 |
| 20260830143516 | 72 | 225 | 10.0 | 17.0 | 0.00 | 0.01 | 0.00 | 74 | 1009.4 |
| 20260830142516 | 72 | 225 | 9.0 | 17.0 | 0.00 | 0.01 | 0.00 | 75 | 1009.3 |
| 20260830141516 | 72 | 225 | 10.0 | 18.0 | 0.00 | 0.01 | 0.00 | 73 | 1009.3 |
| 20260830140517 | 72 | 248 | 10.0 | 20.0 | 0.00 | 0.01 | 0.00 | 72 | 1009.4 |
| 20260830135516 | 72 | 225 | 9.0 | 21.0 | 0.00 | 0.01 | 0.00 | 72 | 1009.4 |
| 20260830134518 | 72 | 225 | 10.0 | 18.0 | 0.00 | 0.01 | 0.00 | 74 | 1009.6 |
| 20260830133516 | 72 | 225 | 9.0 | 18.0 | 0.00 | 0.02 | 0.00 | 75 | 1009.7 |
| 20260830132556 | 71 | 248 | 8.0 | 16.0 | 0.00 | 0.02 | 0.00 | 76 | 1009.8 |
| 20260830131538 | 71 | 225 | 9.0 | 15.0 | 0.00 | 0.02 | 0.00 | 75 | 1009.9 |
| 20260830130516 | 71 | 225 | 9.0 | 19.0 | 0.00 | 0.03 | 0.00 | 74 | 1009.8 |
| 20260830125516 | 71 | 225 | 10.0 | 21.0 | 0.00 | 0.09 | 0.00 | 74 | 1009.9 |
| 20260830124518 | 71 | 225 | 10.0 | 17.0 | 0.00 | 0.09 | 0.00 | 75 | 1009.9 |
| 20260830123516 | 71 | 248 | 9.0 | 17.0 | 0.00 | 0.09 | 0.00 | 75 | 1009.9 |
| 20260830122516 | 71 | 248 | 7.0 | 11.0 | 0.00 | 0.09 | 0.00 | 75 | 1010.0 |
| 20260830121558 | 71 | 248 | 9.0 | 18.0 | 0.00 | 0.09 | 0.00 | 76 | 1010.0 |
| 20260830120539 | 70 | 248 | 9.0 | 17.0 | 0.00 | 0.09 | 0.00 | 78 | 1010.0 |
| 20260830115518 | 70 | 225 | 10.0 | 18.0 | 0.00 | 0.09 | 0.00 | 77 | 1010.1 |
| 20260830114516 | 70 | 248 | 9.0 | 16.0 | 0.00 | 0.09 | 0.00 | 78 | 1010.0 |
| 20260830113516 | 70 | 248 | 9.0 | 15.0 | 0.00 | 0.09 | 0.00 | 79 | 1010.1 |
| 20260830112518 | 70 | 225 | 10.0 | 19.0 | 0.00 | 0.09 | 0.00 | 79 | 1010.2 |
| 20260830111516 | 70 | 248 | 8.0 | 13.0 | 0.00 | 0.09 | 0.00 | 80 | 1010.3 |
| 20260830110536 | 69 | 225 | 9.0 | 15.0 | 0.00 | 0.09 | 0.00 | 80 | 1010.3 |
| 20260830105516 | 69 | 225 | 7.0 | 13.0 | 0.00 | 0.09 | 0.00 | 82 | 1010.4 |
| 20260830104518 | 71 | 225 | 7.0 | 13.0 | 0.00 | 0.09 | 0.00 | 79 | 1010.5 |
| 20260830103518 | 72 | 225 | 9.0 | 16.0 | 0.00 | 0.09 | 0.00 | 74 | 1010.4 |
| 20260830102516 | 73 | 248 | 9.0 | 16.0 | 0.00 | 0.10 | 0.00 | 74 | 1010.5 |
| 20260830101516 | 72 | 225 | 8.0 | 17.0 | 0.00 | 0.10 | 0.00 | 75 | 1010.4 |
| 20260830100516 | 70 | 225 | 7.0 | 14.0 | 0.00 | 0.11 | 0.00 | 76 | 1010.5 |
| 20260830095523 | 70 | 225 | 8.0 | 15.0 | 0.00 | 0.13 | 0.00 | 74 | 1010.6 |
| 20260830094538 | 70 | 225 | 8.0 | 15.0 | 0.00 | 0.15 | 0.00 | 76 | 1010.7 |
| 20260830093516 | 70 | 225 | 8.0 | 15.0 | 0.00 | 0.26 | 0.00 | 76 | 1010.7 |
| 20260830092517 | 71 | 225 | 6.0 | 12.0 | 0.00 | 0.28 | 0.00 | 76 | 1010.6 |
| 20260830091516 | 71 | 203 | 7.0 | 15.0 | 0.00 | 0.34 | 0.00 | 73 | 1010.6 |
| 20260830090516 | 71 | 248 | 6.0 | 15.0 | 0.00 | 0.38 | 0.00 | 73 | 1010.6 |
| 20260830085516 | 70 | 248 | 5.0 | 12.0 | 0.00 | 0.42 | 0.00 | 78 | 1010.7 |
| 20260830084516 | 69 | 248 | 5.0 | 11.0 | 0.00 | 0.46 | 0.00 | 77 | 1010.8 |
| 20260830083536 | 70 | 225 | 5.0 | 10.0 | 0.00 | 0.50 | 0.00 | 76 | 1010.6 |
| 20260830082518 | 69 | 248 | 5.0 | 12.0 | 0.00 | 0.53 | 0.00 | 79 | 1010.6 |
| 20260830081539 | 67 | 225 | 6.0 | 12.0 | 0.00 | 0.59 | 0.00 | 81 | 1010.6 |
| 20260830080517 | 67 | 248 | 5.0 | 11.0 | 0.00 | 0.61 | 0.00 | 83 | 1010.5 |
| 20260830075517 | 67 | 225 | 4.0 | 10.0 | 0.00 | 0.65 | 0.00 | 84 | 1010.5 |
| 20260830074517 | 66 | 248 | 5.0 | 11.0 | 0.00 | 0.69 | 0.00 | 84 | 1010.5 |
| 20260830073517 | 66 | 248 | 5.0 | 10.0 | 0.00 | 0.70 | 0.00 | 84 | 1010.5 |
| 20260830072516 | 66 | 248 | 3.0 | 8.0 | 0.00 | 0.70 | 0.00 | 84 | 1010.5 |
| 20260830071516 | 66 | 225 | 3.0 | 6.0 | 0.00 | 0.71 | 0.00 | 84 | 1010.4 |
| 20260830070517 | 66 | 248 | 3.0 | 7.0 | 0.00 | 0.71 | 0.00 | 85 | 1010.4 |
| 20260830065519 | 65 | 248 | 3.0 | 6.0 | 0.00 | 0.72 | 0.00 | 86 | 1010.4 |
| 20260830064517 | 64 | 248 | 3.0 | 6.0 | 0.00 | 0.72 | 0.00 | 89 | 1010.3 |
| 20260830063515 | 63 | 225 | 1.0 | 5.0 | 0.00 | 0.73 | 0.00 | 89 | 1010.2 |
| 20260830062516 | 63 | 270 | 1.0 | 4.0 | 0.00 | 0.73 | 0.00 | 89 | 1010.1 |
| 20260830061517 | 63 | 0.0 | 1.0 | 0.00 | 0.73 | 0.00 | 89 | 1010.1 | |
| 20260830060515 | 63 | 0.0 | 2.0 | 0.00 | 0.73 | 0.00 | 88 | 1010.1 | |
| 20260830055517 | 63 | 225 | 1.0 | 4.0 | 0.00 | 0.73 | 0.00 | 88 | 1010.0 |
| 20260830054557 | 63 | 248 | 1.0 | 4.0 | 0.00 | 0.73 | 0.00 | 88 | 1009.9 |
| 20260830053515 | 63 | 270 | 2.0 | 6.0 | 0.00 | 0.73 | 0.00 | 88 | 1009.8 |
| 20260830052516 | 63 | 270 | 1.0 | 4.0 | 0.00 | 0.73 | 0.00 | 88 | 1009.9 |
| 20260830051519 | 63 | 293 | 1.0 | 5.0 | 0.00 | 0.73 | 0.00 | 87 | 1009.9 |